Temp
-18 -19 -18 -18 -18 -17 -17 -16 -17 -16 -16 -16 -15 -16 -16 -15 -15 -15 -15 -15 -15 -14 -15 -15 -14 -14 -15 -15 -15 -15 -15 -14 -14 -15 -15 -15 -15 -15 -15 -15 -15 -15 -15 -15
-19 -19 -19 -18 -18 -18 -17 -17 -17 -17 -17 -16 -17 -16 -17 -17 -16 -16 -16 -16 -15 -15 -15 -16 -15 -15 -14 -15 -15 -15 -15 -15 -15 -15 -15 -15 -15 -15 -16 -15 -15 -16 -15 -16
-19 -19 -19 -18 -18 -19 -19 -18 -19 -19 -19 -18 -18 -18 -17 -17 -17 -17 -17 -17 -17 -16 -16 -16 -16 -16 -15 -15 -15 -15 -15 -16 -16 -16 -16 -16 -15 -15 -16 -16 -16 -16 -16 -16
-19 -19 -19 -19 -19 -19 -20 -20 -20 -20 -19 -18 -18 -17 -18 -18 -16 -15 -16 -16 -16 -16 -16 -15 -15 -15 -15 -15 -15 -15 -15 -15 -16 -16 -16 -16 -16 -16 -16 -16 -16 -16 -16 -16
-20 -20 -20 -20 -20 -19 -19 -18 -19 -19 -19 -19 -17 -18 -18 -18 -16 -16 -17 -16 -15 -15 -15 -15 -15 -15 -15 -15 -15 -16 -15 -15 -16 -15 -15 -16 -16 -16 -17 -16 -16 -16 -16 -16
-21 -20 -20 -20 -21 -20 -20 -20 -19 -19 -19 -18 -18 -19 -18 -18 -18 -18 -17 -15 -16 -17 -16 -16 -16 -16 -16 -16 -15 -15 -14 -14 -15 -15 -15 -16 -16 -16 -16 -16 -16 -16 -16 -15
-21 -21 -20 -21 -20 -20 -20 -20 -19 -19 -18 -18 -18 -18 -19 -19 -19 -17 -18 -17 -18 -17 -17 -16 -17 -17 -16 -16 -16 -16 -15 -15 -15 -15 -15 -16 -16 -16 -16 -16 -16 -16 -16 -16
-22 -21 -20 -21 -21 -21 -20 -20 -19 -19 -18 -19 -19 -19 -20 -20 -20 -19 -19 -19 -19 -19 -18 -18 -17 -17 -17 -16 -16 -16 -16 -16 -16 -16 -15 -16 -16 -16 -16 -16 -16 -16 -16 -15
-22 -22 -22 -22 -21 -21 -21 -20 -19 -19 -20 -20 -20 -20 -20 -20 -20 -20 -19 -19 -19 -19 -19 -19 -19 -18 -18 -17 -17 -16 -16 -17 -17 -16 -16 -16 -16 -16 -16 -16 -16 -16 -15 -15
-22 -22 -22 -21 -20 -21 -21 -21 -20 -21 -21 -20 -20 -20 -20 -20 -20 -20 -20 -19 -19 -19 -19 -19 -19 -19 -19 -18 -18 -17 -17 -17 -17 -17 -17 -16 -16 -16 -16 -16 -16 -16 -16 -15
-22 -22 -21 -21 -21 -21 -21 -21 -21 -21 -21 -21 -21 -20 -20 -20 -20 -20 -20 -19 -19 -19 -19 -19 -19 -19 -19 -19 -18 -18 -18 -18 -18 -18 -17 -17 -17 -17 -16 -16 -16 -16 -16 -16
-22 -22 -22 -22 -21 -21 -22 -21 -21 -21 -21 -21 -21 -20 -20 -20 -20 -20 -20 -19 -19 -19 -19 -19 -19 -19 -19 -19 -19 -18 -18 -18 -18 -18 -18 -18 -17 -17 -17 -17 -17 -16 -16 -16
-22 -23 -22 -22 -22 -22 -22 -22 -21 -21 -21 -21 -20 -20 -20 -20 -20 -20 -20 -20 -20 -19 -19 -19 -19 -19 -19 -19 -19 -19 -19 -19 -19 -18 -18 -17 -18 -17 -17 -17 -17 -17 -17 -16
-23 -23 -23 -23 -22 -22 -22 -22 -21 -21 -21 -21 -21 -21 -21 -20 -20 -20 -20 -20 -20 -20 -20 -21 -21 -22 -21 -21 -20 -19 -19 -19 -19 -18 -18 -18 -17 -16 -17 -17 -17 -17 -16 -17
-24 -23 -23 -23 -22 -22 -22 -22 -22 -22 -21 -21 -21 -21 -21 -21 -21 -20 -20 -20 -20 -21 -21 -22 -22 -22 -21 -21 -21 -20 -20 -19 -20 -19 -19 -18 -18 -17 -17 -17 -18 -18 -17 -18
-23 -23 -23 -23 -23 -23 -23 -23 -22 -22 -22 -22 -21 -21 -21 -21 -21 -21 -21 -21 -22 -21 -21 -22 -22 -22 -22 -22 -21 -21 -21 -21 -21 -21 -21 -20 -19 -20 -19 -19 -19 -19 -19 -19
-24 -24 -24 -23 -23 -23 -23 -23 -23 -23 -23 -23 -23 -23 -23 -23 -22 -22 -22 -22 -22 -22 -22 -22 -22 -22 -22 -21 -22 -21 -21 -21 -21 -21 -21 -21 -21 -21 -21 -20 -20 -21 -21 -20
-24 -24 -24 -24 -23 -24 -24 -24 -24 -24 -24 -24 -24 -24 -23 -23 -23 -23 -23 -23 -23 -23 -22 -22 -22 -22 -22 -22 -22 -22 -22 -22 -21 -22 -22 -22 -21 -21 -21 -21 -21 -22 -22 -22
-25 -25 -25 -25 -25 -25 -25 -24 -24 -24 -25 -25 -24 -24 -24 -24 -24 -23 -23 -23 -23 -23 -23 -23 -23 -23 -23 -23 -23 -23 -22 -22 -22 -22 -22 -22 -22 -22 -22 -22 -22 -22 -22 -22
-25 -25 -25 -25 -25 -25 -25 -25 -25 -25 -25 -25 -25 -25 -25 -24 -24 -24 -24 -24 -24 -24 -23 -23 -23 -23 -23 -23 -23 -23 -23 -22 -22 -22 -22 -23 -23 -23 -23 -23 -23 -23 -23 -23
-25 -25 -25 -25 -25 -25 -25 -25 -25 -25 -25 -25 -25 -25 -25 -25 -24 -24 -24 -24 -24 -24 -24 -24 -24 -23 -23 -23 -23 -23 -23 -23 -23 -23 -23 -23 -23 -23 -24 -24 -24 -24 -24 -24
-25 -25 -25 -25 -25 -26 -25 -25 -25 -25 -25 -25 -25 -25 -25 -25 -25 -25 -25 -25 -24 -24 -24 -25 -24 -24 -24 -24 -24 -24 -24 -24 -24 -25 -25 -25 -25 -25 -25 -25 -25 -25 -25 -25
-25 -25 -25 -26 -26 -26 -26 -26 -26 -26 -26 -25 -25 -25 -25 -25 -25 -25 -25 -25 -26 -26 -26 -26 -26 -26 -26 -26 -26 -26 -26 -26 -26 -26 -26 -25 -25 -25 -25 -25 -25 -25 -25 -25
-25 -25 -25 -26 -26 -26 -26 -26 -26 -26 -26 -26 -26 -26 -27 -27 -27 -27 -27 -27 -27 -27 -27 -27 -27 -27 -27 -27 -27 -27 -27 -27 -26 -26 -26 -26 -26 -25 -25 -25 -25 -26 -26 -26
-26 -26 -26 -26 -26 -27 -27 -27 -27 -27 -28 -28 -28 -28 -28 -28 -28 -28 -28 -28 -28 -28 -28 -28 -28 -28 -27 -27 -27 -27 -27 -27 -27 -27 -27 -26 -26 -26 -27 -27 -28 -28 -29 -29
-27 -27 -27 -28 -28 -28 -28 -28 -28 -29 -29 -29 -29 -29 -29 -29 -29 -29 -29 -29 -29 -29 -29 -29 -29 -29 -29 -28 -28 -28 -28 -28 -28 -29 -29 -29 -30 -30 -31 -31 -31 -31 -31 -31
-28 -28 -29 -29 -29 -29 -30 -30 -30 -30 -30 -30 -30 -30 -30 -30 -30 -30 -30 -30 -30 -30 -30 -30 -30 -31 -31 -31 -31 -31 -32 -32 -32 -32 -32 -32 -32 -32 -32 -32 -32 -32 -32 -32
Height
5596 5597 5598 5598 5602 5607 5611 5617 5621 5624 5627 5628 5633 5636 5638 5640 5643 5646 5648 5649 5652 5654 5656 5656 5658 5660 5663 5665 5668 5670 5671 5673 5676 5676 5677 5678 5679 5681 5681 5680 5681 5680 5681 5681
5590 5593 5594 5594 5597 5600 5606 5606 5612 5618 5622 5623 5624 5628 5628 5630 5637 5637 5641 5642 5643 5646 5648 5650 5649 5652 5655 5657 5659 5660 5662 5665 5667 5668 5668 5670 5670 5671 5672 5673 5673 5673 5673 5673
5584 5587 5588 5592 5597 5599 5601 5602 5606 5609 5614 5613 5618 5619 5619 5627 5627 5631 5632 5633 5634 5635 5638 5641 5642 5644 5646 5648 5649 5649 5653 5656 5656 5658 5660 5661 5661 5661 5663 5665 5664 5664 5664 5662
5577 5579 5581 5588 5588 5591 5594 5597 5600 5603 5606 5609 5610 5611 5617 5616 5614 5623 5624 5625 5626 5628 5630 5632 5633 5635 5637 5639 5641 5641 5643 5645 5646 5647 5649 5650 5650 5651 5652 5653 5654 5654 5654 5653
5566 5572 5576 5580 5581 5584 5587 5591 5592 5595 5597 5597 5599 5604 5608 5606 5607 5612 5613 5613 5617 5620 5621 5622 5623 5624 5625 5626 5627 5629 5631 5633 5634 5635 5634 5635 5636 5640 5641 5640 5640 5641 5641 5640
5559 5563 5566 5573 5577 5574 5580 5585 5582 5585 5587 5589 5591 5597 5596 5598 5600 5599 5601 5604 5607 5608 5608 5610 5612 5612 5613 5614 5615 5617 5618 5620 5623 5623 5625 5624 5625 5626 5627 5627 5628 5628 5628 5628
5549 5553 5557 5564 5565 5569 5571 5574 5572 5574 5576 5581 5585 5587 5590 5587 5588 5586 5590 5592 5593 5594 5596 5597 5599 5600 5601 5602 5603 5603 5605 5606 5606 5607 5610 5611 5611 5612 5612 5613 5613 5615 5614 5615
5542 5544 5550 5555 5560 5562 5563 5563 5564 5565 5568 5572 5572 5574 5577 5578 5577 5580 5582 5582 5583 5583 5584 5585 5586 5587 5587 5589 5589 5590 5590 5592 5592 5592 5593 5596 5596 5596 5597 5599 5600 5601 5600 5599
5539 5544 5547 5548 5551 5553 5556 5558 5558 5560 5562 5564 5566 5567 5569 5570 5572 5573 5573 5573 5574 5574 5574 5574 5574 5574 5574 5573 5574 5574 5575 5577 5578 5578 5578 5581 5581 5582 5582 5583 5584 5585 5586 5584
5534 5538 5541 5545 5539 5545 5547 5550 5552 5555 5555 5557 5558 5559 5561 5561 5563 5563 5564 5564 5563 5563 5563 5562 5561 5561 5560 5560 5560 5559 5559 5560 5561 5562 5562 5564 5565 5566 5566 5568 5568 5568 5568 5568
5529 5532 5534 5536 5536 5537 5542 5544 5545 5546 5549 5550 5551 5552 5552 5554 5553 5554 5555 5554 5554 5553 5551 5550 5549 5548 5547 5546 5545 5544 5544 5544 5544 5545 5546 5548 5548 5550 5551 5552 5554 5555 5554 5553
5523 5527 5527 5528 5531 5529 5533 5535 5537 5540 5542 5542 5544 5543 5543 5544 5543 5543 5543 5542 5541 5540 5538 5536 5534 5532 5531 5530 5529 5528 5527 5527 5527 5528 5529 5531 5533 5534 5535 5536 5537 5537 5538 5536
5519 5519 5518 5522 5525 5524 5525 5528 5530 5532 5533 5534 5534 5534 5534 5535 5534 5533 5533 5532 5530 5527 5524 5521 5518 5515 5513 5512 5513 5513 5512 5511 5512 5511 5512 5513 5515 5518 5519 5517 5518 5520 5521 5519
5510 5510 5513 5515 5516 5518 5519 5520 5522 5523 5523 5523 5524 5524 5524 5524 5523 5522 5520 5518 5516 5512 5509 5504 5500 5496 5493 5492 5494 5495 5497 5496 5496 5493 5495 5491 5496 5496 5500 5489 5496 5504 5501 5497
5503 5504 5507 5507 5510 5511 5510 5510 5512 5512 5512 5512 5512 5513 5512 5511 5510 5509 5507 5505 5502 5499 5494 5490 5487 5484 5483 5482 5481 5480 5482 5481 5480 5480 5479 5478 5480 5478 5481 5478 5480 5483 5483 5481
5495 5497 5497 5498 5500 5500 5500 5499 5500 5500 5500 5500 5500 5500 5499 5498 5497 5496 5494 5491 5489 5486 5484 5479 5477 5476 5474 5473 5471 5471 5471 5469 5468 5467 5467 5467 5467 5467 5468 5466 5466 5467 5466 5466
5489 5490 5489 5490 5490 5490 5490 5489 5489 5489 5488 5488 5487 5486 5486 5485 5483 5482 5480 5479 5477 5475 5473 5472 5469 5466 5464 5463 5462 5461 5460 5459 5459 5458 5458 5457 5455 5455 5455 5455 5455 5454 5453 5451
5481 5479 5479 5479 5479 5480 5479 5478 5477 5476 5476 5475 5474 5473 5473 5472 5471 5470 5468 5466 5465 5464 5462 5461 5459 5457 5455 5453 5452 5450 5449 5448 5447 5446 5445 5444 5444 5443 5442 5442 5440 5439 5439 5437
5471 5471 5470 5469 5468 5467 5466 5465 5464 5462 5461 5461 5461 5460 5460 5459 5459 5458 5456 5455 5453 5453 5451 5449 5447 5446 5444 5443 5441 5439 5438 5436 5435 5433 5432 5430 5430 5429 5427 5427 5425 5423 5422 5421
5463 5462 5460 5459 5457 5455 5454 5453 5452 5450 5448 5449 5448 5448 5447 5447 5447 5446 5444 5443 5441 5440 5438 5437 5435 5434 5432 5431 5429 5427 5425 5424 5423 5421 5418 5418 5416 5415 5414 5412 5410 5408 5405 5401
5454 5453 5451 5449 5446 5444 5443 5442 5440 5439 5438 5437 5436 5436 5435 5434 5434 5433 5432 5430 5429 5427 5426 5424 5422 5421 5419 5418 5416 5414 5412 5410 5409 5407 5404 5402 5399 5397 5394 5391 5389 5387 5386 5383
5444 5442 5440 5437 5434 5432 5431 5430 5429 5428 5426 5425 5424 5423 5422 5422 5421 5420 5418 5417 5415 5414 5412 5410 5409 5407 5405 5403 5401 5399 5397 5394 5392 5390 5387 5385 5383 5381 5379 5376 5372 5369 5366 5363
5433 5431 5429 5427 5425 5423 5421 5419 5418 5416 5414 5412 5411 5410 5409 5408 5407 5406 5405 5404 5402 5400 5398 5396 5394 5392 5390 5388 5386 5384 5382 5380 5378 5376 5372 5370 5366 5363 5360 5356 5353 5349 5345 5340
5422 5420 5418 5416 5414 5412 5410 5408 5406 5404 5403 5401 5399 5398 5396 5395 5394 5393 5392 5390 5389 5387 5385 5384 5382 5380 5378 5375 5372 5370 5368 5365 5362 5358 5355 5352 5349 5346 5342 5338 5334 5330 5325 5321
5413 5410 5408 5406 5403 5401 5399 5397 5394 5392 5390 5389 5387 5386 5384 5383 5382 5380 5378 5376 5375 5373 5370 5368 5366 5363 5361 5358 5356 5353 5349 5346 5342 5340 5336 5333 5329 5326 5322 5318 5314 5310 5305 5301
5403 5400 5397 5394 5391 5388 5386 5384 5382 5379 5378 5376 5374 5372 5370 5368 5366 5365 5363 5361 5359 5356 5354 5352 5349 5346 5343 5341 5337 5334 5331 5327 5324 5321 5318 5314 5311 5308 5304 5301 5297 5294 5290 5286
5391 5387 5383 5379 5376 5372 5370 5367 5365 5363 5361 5360 5357 5356 5354 5352 5351 5349 5347 5345 5343 5340 5338 5335 5332 5330 5327 5324 5322 5319 5316 5313 5310 5306 5303 5300 5297 5294 5290 5286 5282 5277 5272 5267
Wind_Speed
23 22 18 11 19 14 23 24 35 31 29 25 29 18 25 34 30 32 36 37 34 35 40 40 39 39 35 34 32 33 34 33 30 30 30 31 32 31 30 29 28 29 28 29
24 24 27 23 23 14 32 18 18 26 22 24 16 9 29 33 29 31 29 27 29 31 30 40 41 39 39 40 39 39 38 35 34 35 35 34 34 34 33 33 33 32 32 31
27 33 33 30 24 21 22 24 23 25 20 29 23 28 36 24 28 25 28 28 29 29 29 27 31 32 43 40 40 41 38 38 38 38 38 38 38 38 38 36 37 38 38 37
37 35 34 28 26 27 28 23 23 23 19 21 29 34 30 29 35 28 28 30 30 31 31 32 32 33 30 32 36 42 43 42 43 42 40 41 41 41 41 38 38 39 39 41
42 44 41 31 31 34 29 24 24 24 25 35 35 35 32 37 36 30 28 33 33 31 30 32 34 35 35 35 36 40 41 43 47 48 47 44 48 44 43 45 44 42 42 42
37 38 42 41 37 38 30 27 37 35 33 38 37 30 33 36 37 37 35 35 31 28 34 32 31 34 39 40 41 41 40 43 42 44 51 54 50 49 50 48 51 47 44 46
32 34 35 31 34 29 27 32 37 40 42 39 37 37 35 37 35 39 32 34 29 32 33 36 36 36 39 41 44 46 48 49 50 50 49 52 54 56 57 58 54 50 56 52
27 28 30 25 18 20 18 21 29 33 30 23 28 28 24 24 26 24 22 24 24 26 27 28 31 36 41 43 44 48 50 49 51 54 53 51 54 56 57 53 59 58 56 56
20 18 18 24 31 34 28 30 30 23 21 22 21 20 20 22 24 24 25 25 25 26 27 29 32 34 36 44 47 48 52 54 55 56 56 56 54 57 59 60 60 61 63 62
17 17 21 16 27 33 31 30 29 25 25 23 23 24 24 25 26 29 30 32 34 34 35 34 36 36 39 39 45 51 52 52 52 58 59 61 62 60 57 58 54 62 62 63
20 18 27 31 29 30 28 30 29 28 27 27 27 28 30 29 32 33 34 36 37 39 43 45 47 47 46 44 45 46 55 58 57 57 61 63 66 64 61 56 59 59 62 64
29 24 23 30 29 28 30 31 33 31 30 32 31 32 33 33 35 36 38 40 43 46 48 50 53 54 53 52 49 49 51 58 56 58 60 62 63 61 64 65 63 61 57 66
32 34 38 36 36 38 36 34 35 34 33 34 34 35 36 36 37 39 41 45 48 51 54 56 58 60 62 60 58 53 49 54 52 53 55 61 62 63 62 63 65 64 63 64
32 40 37 38 38 38 39 38 37 37 37 37 37 38 39 40 42 44 47 48 51 54 55 55 52 52 47 46 45 52 51 51 61 40 41 44 51 46 55 37 46 53 47 54
27 33 36 39 40 39 39 39 38 39 39 40 40 40 41 42 44 46 48 50 52 50 49 51 45 34 26 31 32 34 40 49 53 56 46 45 49 47 65 64 67 61 64 71
33 32 34 36 36 38 39 40 40 41 41 43 44 43 43 45 46 47 48 48 47 42 40 37 43 35 41 29 26 29 32 30 32 32 30 38 47 40 42 47 42 43 42 45
32 32 34 35 36 39 41 42 43 43 44 44 45 45 45 45 48 44 45 44 43 41 41 35 30 31 28 33 35 34 31 31 32 30 32 31 31 33 33 36 36 36 39 45
33 37 39 40 41 42 44 46 49 50 51 50 50 47 45 41 39 38 37 40 40 39 39 38 34 35 38 34 32 33 34 34 36 36 34 36 37 38 40 41 39 42 45 46
38 36 38 41 42 44 44 42 41 42 43 41 38 38 38 39 39 39 40 39 39 40 38 37 35 36 36 38 38 38 39 39 41 41 43 43 42 42 43 45 46 47 50 52
30 32 35 36 37 39 38 36 37 34 35 38 39 39 42 44 41 41 38 39 38 40 43 43 42 40 37 39 38 39 39 40 41 43 44 44 44 44 45 46 46 49 51 53
32 34 36 38 40 40 40 41 42 42 42 42 42 41 39 42 44 42 42 42 43 42 44 44 43 44 44 44 44 43 43 43 44 44 45 46 47 48 48 49 50 52 54 56
31 32 33 33 33 33 34 35 39 40 39 40 39 39 41 42 43 44 44 44 45 44 43 41 40 40 41 42 42 43 44 44 45 45 46 47 49 50 52 53 55 57 58 59
38 37 36 35 34 33 34 35 35 35 35 36 38 40 41 41 41 42 41 40 39 39 39 40 40 41 42 42 43 44 46 47 48 49 51 53 54 56 59 61 63 66 68 69
36 35 35 35 36 36 37 37 37 37 38 38 37 36 36 36 37 37 38 38 39 40 42 43 45 46 47 47 48 49 50 51 52 54 56 59 61 64 66 68 70 72 72 72
28 31 33 34 35 36 36 36 36 35 36 36 36 37 38 39 40 42 42 44 45 46 48 49 50 50 51 52 54 55 57 58 59 61 63 64 66 67 67 66 65 63 61 59
33 34 35 37 38 39 40 40 40 41 41 42 43 44 45 46 47 48 49 51 53 54 55 55 56 56 56 56 55 54 54 54 55 55 55 54 54 53 51 50 49 50 51 54
42 43 44 46 47 47 47 47 48 49 50 51 52 53 54 54 55 56 56 56 55 53 51 49 48 47 46 44 43 42 41 41 41 41 41 42 43 44 46 48 51 53 55 55
Wind_Direction
246 254 252 224 204 210 216 217 218 221 214 223 209 226 236 224 232 241 251 249 250 254 246 252 254 241 243 246 247 256 262 260 261 259 259 267 267 265 271 273 276 277 279 273
231 241 240 230 230 194 203 198 221 220 227 229 217 220 242 244 241 239 238 241 243 240 248 251 255 258 256 248 250 252 257 263 261 259 263 269 270 268 269 272 275 277 277 281
225 237 240 230 235 247 246 238 220 225 233 239 240 247 249 248 251 247 250 254 259 264 263 259 267 274 254 250 256 256 254 257 261 263 266 270 269 268 272 274 272 279 282 282
224 225 230 232 243 255 250 254 257 255 250 237 237 233 250 254 251 245 262 259 255 253 256 259 262 265 262 266 268 259 259 263 266 267 267 267 266 269 274 274 275 274 275 279
231 229 234 236 254 247 241 237 234 226 228 238 253 252 248 257 261 265 269 263 263 264 261 256 257 258 258 257 255 259 263 259 255 264 256 261 266 267 268 268 278 279 279 275
234 238 238 240 246 258 257 247 247 243 233 239 251 248 257 262 274 271 266 269 271 265 267 265 256 254 256 255 256 257 261 269 269 267 259 262 265 265 266 265 272 272 270 270
238 242 245 243 248 256 245 237 247 249 251 254 257 257 252 257 265 269 276 275 275 273 269 266 261 253 250 253 252 254 255 256 261 261 261 261 259 256 261 264 266 266 270 264
229 236 238 240 210 241 241 243 243 250 256 254 250 253 247 239 247 264 261 267 271 272 269 267 262 255 252 252 253 253 253 254 255 259 261 260 261 261 261 262 264 267 267 270
230 236 237 225 219 224 237 214 240 247 236 233 236 238 236 239 250 258 263 267 270 275 275 275 271 269 260 250 250 249 251 251 253 254 256 258 260 264 263 264 269 259 262 266
228 225 226 225 240 229 224 230 234 233 237 238 241 246 251 258 263 265 268 272 276 278 278 279 282 278 268 263 253 252 253 255 253 254 256 254 256 260 264 260 263 260 260 265
202 214 210 211 233 242 229 231 233 234 239 244 247 252 256 260 266 270 272 275 275 276 282 278 279 283 277 271 262 259 254 254 258 257 255 252 255 257 264 263 264 266 261 266
218 223 221 213 214 230 232 231 238 241 244 248 252 257 261 263 269 273 276 280 282 282 283 284 284 280 279 274 273 264 258 256 262 261 260 260 257 254 257 263 262 271 269 263
226 228 234 226 231 246 248 247 245 247 251 255 256 258 260 264 268 275 279 283 283 286 290 289 286 282 278 269 271 270 266 261 264 266 264 261 257 261 257 260 264 265 270 264
233 235 235 239 240 243 247 249 250 253 255 258 259 261 265 268 272 276 282 287 290 292 294 292 290 288 288 273 262 265 267 265 256 243 254 246 251 233 260 246 248 260 245 261
241 242 240 240 241 246 249 252 254 257 259 261 263 265 268 272 277 282 287 290 290 294 290 291 280 277 275 277 270 267 273 262 266 269 273 276 264 236 250 260 262 261 260 266
245 250 250 250 251 252 255 257 259 261 264 266 268 271 274 277 280 284 286 283 289 279 280 297 272 272 269 276 276 280 279 279 280 289 287 286 280 283 257 247 251 249 251 256
253 256 257 258 258 258 260 263 265 267 268 270 273 276 279 281 284 282 278 275 279 279 282 280 279 271 260 263 280 282 282 283 282 282 282 281 278 277 279 272 270 278 270 264
260 262 262 261 260 261 264 266 269 272 273 276 277 278 277 273 270 273 272 275 278 277 275 278 276 280 278 276 274 275 278 282 283 285 283 280 277 278 280 279 278 276 277 276
272 275 277 278 279 280 281 281 281 278 273 275 270 268 263 261 268 271 274 276 273 274 276 279 272 273 276 275 274 276 278 280 282 284 287 288 284 281 278 276 277 277 277 277
274 276 278 281 281 282 282 282 284 287 271 263 269 271 266 264 269 271 273 272 276 276 275 276 277 276 276 279 281 282 283 284 284 285 287 287 285 282 280 281 283 283 284 284
275 276 279 279 276 276 278 278 279 279 277 272 273 269 271 270 272 275 276 277 277 278 278 279 276 274 278 280 281 283 284 284 284 284 286 287 287 287 288 288 288 288 287 287
273 279 278 284 281 275 275 276 276 277 278 276 276 276 276 276 274 275 277 278 278 277 276 277 277 277 278 280 282 283 284 286 286 287 288 289 290 290 291 291 293 293 292 291
277 281 278 277 281 280 278 278 277 276 277 278 277 276 276 275 275 275 276 275 276 278 279 279 280 282 283 283 284 285 286 286 286 288 289 290 291 292 294 294 294 294 294 294
276 275 276 277 276 277 276 276 277 277 278 277 277 276 275 275 274 274 275 276 278 278 279 279 280 281 283 284 285 286 285 286 287 289 290 291 292 292 292 292 292 292 293 293
287 285 284 283 282 281 280 280 280 279 278 276 275 275 275 275 275 276 277 278 279 280 282 283 284 285 286 286 287 288 289 290 291 292 291 291 291 290 290 290 289 289 289 290
294 290 287 284 282 280 277 275 273 272 272 272 272 272 273 273 275 276 277 279 280 282 284 286 288 289 290 290 290 289 289 288 288 287 287 287 287 287 287 287 288 289 290 292
288 288 288 288 287 285 282 280 277 275 273 272 272 273 274 276 277 279 281 283 284 285 286 285 284 283 282 283 283 284 285 286 288 288 289 290 290 290 290 291 292 293 294 295